SM4IVE-5 Weather Reports


Display with metric or nautical units.
time (UTC)temp
F
wind
direction
speed
MPH
gust
MPH
rain 1hr
in
rain 24hr
in
rain mn
in
humidity
%
barometer
mb
20260510051339 46 211 3.0 6.0 0.00 0.00 0.00 77 1014.6
20260510050825 45 178 3.0 6.0 0.00 0.00 0.00 79 1014.7
20260510050333 44 200 3.0 7.0 0.00 0.00 0.00 80 1014.7
20260510045851 43 185 3.0 7.0 0.00 0.00 0.00 82 1014.8
20260510045357 42 196 2.0 5.0 0.00 0.00 0.00 85 1014.8
20260510044902 41 192 2.0 5.0 0.00 0.00 0.00 87 1014.9
20260510044328 40 192 3.0 6.0 0.00 0.00 0.00 89 1014.9
20260510043834 39 217 2.0 6.0 0.00 0.00 0.00 90 1015.0
20260510043340 39 200 1.0 4.0 0.00 0.00 0.00 91 1015.0
20260510042826 38 210 1.0 3.0 0.00 0.00 0.00 91 1015.2
20260510042332 38 194 0.0 1.0 0.00 0.00 0.00 91 1015.2
20260510041839 38 194 0.0 1.0 0.00 0.00 0.00 91 1015.3
20260510041346 37 186 0.0 0.0 0.00 0.00 0.00 91 1015.3
20260510040853 37 186 0.0 0.0 0.00 0.00 0.00 91 1015.3
20260510040324 37 186 0.0 0.0 0.00 0.00 0.00 91 1015.3
20260510035824 37 186 0.0 0.0 0.00 0.00 0.00 91 1015.3
20260510035324 37 186 0.0 2.0 0.00 0.00 0.00 91 1015.4
20260510034845 37 186 0.0 2.0 0.00 0.00 0.00 91 1015.4
20260510034326 36 186 0.0 1.0 0.00 0.00 0.00 90 1015.5
20260510033846 36 186 0.0 1.0 0.00 0.00 0.00 90 1015.7
20260510033326 36 186 0.0 1.0 0.00 0.00 0.00 90 1015.9
20260510032827 36 186 0.0 0.0 0.00 0.00 0.00 89 1015.9
20260510032327 36 186 0.0 2.0 0.00 0.00 0.00 89 1015.9
20260510031827 36 186 0.0 2.0 0.00 0.00 0.00 89 1015.9
20260510031329 36 186 0.0 2.0 0.00 0.00 0.00 89 1016.0
20260510030850 36 186 1.0 2.0 0.00 0.00 0.00 89 1016.1
20260510030349 36 186 0.0 2.0 0.00 0.00 0.00 88 1016.2
20260510025829 37 183 0.0 2.0 0.00 0.00 0.00 89 1016.3
20260510025329 37 183 1.0 2.0 0.00 0.00 0.00 89 1016.3
20260510024830 37 183 1.0 2.0 0.00 0.00 0.00 88 1016.4
20260510024331 37 183 0.0 0.0 0.00 0.00 0.00 87 1016.5
20260510023831 37 183 0.0 1.0 0.00 0.00 0.00 87 1016.5
20260510023332 37 183 0.0 2.0 0.00 0.00 0.00 88 1016.5
20260510022839 37 183 0.0 2.0 0.00 0.00 0.00 88 1016.6
20260510022327 37 183 1.0 2.0 0.00 0.00 0.00 87 1016.6
20260510021856 38 183 1.0 2.0 0.00 0.00 0.00 86 1016.7
20260510021324 38 183 0.0 2.0 0.00 0.00 0.00 85 1016.8
20260510020832 39 183 0.0 1.0 0.00 0.00 0.00 84 1016.9
20260510020351 39 183 0.0 1.0 0.00 0.00 0.00 83 1016.8
20260510015830 39 183 0.0 2.0 0.00 0.00 0.00 83 1016.9
20260510015331 40 183 0.0 2.0 0.00 0.00 0.00 82 1016.8
20260510014839 40 164 1.0 2.0 0.00 0.00 0.00 82 1016.9
20260510014329 41 163 1.0 3.0 0.00 0.00 0.00 83 1017.0
20260510013859 41 163 1.0 5.0 0.00 0.00 0.00 88 1016.9
20260510013326 41 146 2.0 5.0 0.00 0.00 0.00 83 1016.9
20260510012835 41 144 2.0 5.0 0.00 0.00 0.00 83 1017.0
20260510012325 41 162 3.0 6.0 0.00 0.00 0.00 83 1017.0
20260510011831 41 140 3.0 6.0 0.00 0.00 0.00 83 1017.2
20260510011330 41 220 1.0 7.0 0.00 0.00 0.00 83 1017.3
20260510010851 41 198 3.0 9.0 0.00 0.00 0.00 83 1017.3
20260510010350 41 200 2.0 9.0 0.00 0.00 0.00 83 1017.3
20260510005837 41 188 2.0 7.0 0.00 0.00 0.00 83 1017.4
20260510005345 41 130 1.0 5.0 0.00 0.00 0.00 83 1017.4
20260510004831 41 191 2.0 4.0 0.00 0.00 0.00 82 1017.5
20260510004330 41 133 2.0 6.0 0.00 0.00 0.00 82 1017.6
20260510003830 41 169 2.0 6.0 0.00 0.00 0.00 82 1017.7
20260510003331 42 148 3.0 6.0 0.00 0.00 0.00 82 1017.9
20260510002831 42 152 3.0 8.0 0.00 0.00 0.00 81 1018.0
20260510002330 42 194 5.0 7.0 0.00 0.00 0.00 81 1018.1
20260510001831 42 207 3.0 10.0 0.00 0.00 0.00 81 1018.1
20260510001331 42 149 4.0 10.0 0.00 0.00 0.00 81 1018.2
20260510000831 42 173 3.0 9.0 0.00 0.00 0.00 80 1018.2
20260510000333 42 142 5.0 10.0 0.00 0.00 0.00 80 1018.3
20260509235832 42 203 3.0 10.0 0.00 0.00 0.00 79 1018.4
20260509235328 43 175 5.0 10.0 0.00 0.00 0.00 79 1018.4
20260509234825 43 188 5.0 12.0 0.00 0.00 0.00 78 1018.4
20260509234326 43 187 5.0 12.0 0.00 0.00 0.00 78 1018.5
20260509233847 43 158 4.0 13.0 0.00 0.00 0.00 77 1018.5
20260509233326 43 192 6.0 13.0 0.00 0.00 0.00 77 1018.6
20260509232827 43 169 5.0 13.0 0.00 0.00 0.00 76 1018.6
20260509232326 43 176 5.0 13.0 0.00 0.00 0.00 76 1018.7
20260509231834 43 180 5.0 10.0 0.00 0.00 0.00 75 1018.7
20260509231343 43 159 4.0 11.0 0.00 0.00 0.00 75 1018.8
20260509230832 44 154 4.0 12.0 0.00 0.00 0.00 74 1018.9
20260509230340 44 150 5.0 11.0 0.00 0.00 0.00 74 1018.9
20260509225849 44 198 5.0 10.0 0.00 0.00 0.00 74 1019.0
20260509225328 44 149 5.0 11.0 0.00 0.00 0.00 73 1019.0
20260509224834 44 164 4.0 10.0 0.00 0.00 0.00 73 1019.1
20260509224342 44 157 5.0 10.0 0.00 0.00 0.00 72 1019.2
20260509223850 44 188 4.0 11.0 0.00 0.00 0.00 72 1019.2
20260509223350 44 165 5.0 11.0 0.00 0.00 0.00 71 1019.3
20260509222829 45 179 5.0 13.0 0.00 0.00 0.00 71 1019.3
20260509222349 45 163 6.0 13.0 0.00 0.00 0.00 70 1019.4
20260509221829 45 160 5.0 11.0 0.00 0.00 0.00 70 1019.5
20260509221328 45 158 6.0 11.0 0.00 0.00 0.00 69 1019.6
20260509220828 45 189 6.0 12.0 0.00 0.00 0.00 69 1019.6
20260509220330 45 163 6.0 14.0 0.00 0.00 0.00 68 1019.6
20260509215831 45 173 6.0 14.0 0.00 0.00 0.00 67 1019.7
20260509215331 45 180 6.0 11.0 0.00 0.00 0.00 67 1019.7
20260509214851 46 188 5.0 14.0 0.00 0.00 0.00 66 1019.7
20260509214339 46 136 5.0 14.0 0.00 0.00 0.00 65 1019.8
20260509213824 46 163 5.0 12.0 0.00 0.00 0.00 64 1019.8
20260509213332 46 148 4.0 10.0 0.00 0.00 0.00 63 1019.8
20260509212840 46 163 5.0 12.0 0.00 0.00 0.00 63 1019.8
20260509212326 47 182 6.0 13.0 0.00 0.00 0.00 62 1019.8
20260509211855 47 165 7.0 13.0 0.00 0.00 0.00 61 1019.8
20260509211329 47 198 5.0 12.0 0.00 0.00 0.00 60 1019.8
20260509210830 47 188 4.0 12.0 0.00 0.00 0.00 59 1019.9
20260509210329 47 196 6.0 12.0 0.00 0.00 0.00 59 1019.9
20260509205829 48 163 5.0 12.0 0.00 0.00 0.00 58 1019.8
20260509205329 48 185 6.0 14.0 0.00 0.00 0.00 57 1019.9
20260509204829 48 179 5.0 12.0 0.00 0.00 0.00 56 1019.9
20260509204329 48 173 6.0 10.0 0.00 0.00 0.00 56 1020.0
20260509203838 48 145 5.0 11.0 0.00 0.00 0.00 59 1019.9
20260509203347 48 182 4.0 11.0 0.00 0.00 0.00 56 1020.0
20260509202856 49 145 5.0 11.0 0.00 0.00 0.00 55 1020.1
20260509202345 49 159 6.0 13.0 0.00 0.00 0.00 55 1020.1
20260509201827 49 136 5.0 15.0 0.00 0.00 0.00 54 1020.2
20260509201348 49 141 6.0 15.0 0.00 0.00 0.00 54 1020.1
20260509200835 50 196 5.0 12.0 0.00 0.00 0.00 54 1020.1
20260509200324 50 126 6.0 12.0 0.00 0.00 0.00 53 1020.2
20260509195826 50 156 6.0 12.0 0.00 0.00 0.00 53 1020.2
20260509195326 50 126 6.0 12.0 0.00 0.00 0.00 54 1020.3
20260509194827 50 170 6.0 10.0 0.00 0.00 0.00 55 1020.3
20260509194326 51 173 6.0 10.0 0.00 0.00 0.00 54 1020.3
20260509193827 51 178 4.0 9.0 0.00 0.00 0.00 53 1020.3
20260509193327 51 153 5.0 9.0 0.00 0.00 0.00 53 1020.3
20260509192848 51 153 4.0 9.0 0.00 0.00 0.00 52 1020.3
20260509192328 52 138 2.0 9.0 0.00 0.00 0.00 51 1020.2
20260509191828 52 165 3.0 9.0 0.00 0.00 0.00 51 1020.2
20260509191348 52 159 3.0 10.0 0.00 0.00 0.00 50 1020.2
20260509190827 53 160 3.0 10.0 0.00 0.00 0.00 49 1020.2
20260509190336 53 165 3.0 8.0 0.00 0.00 0.00 49 1020.2
20260509185825 53 165 4.0 11.0 0.00 0.00 0.00 48 1020.2
20260509185344 54 163 4.0 16.0 0.00 0.00 0.00 47 1020.2
20260509184844 54 144 4.0 16.0 0.00 0.00 0.00 46 1020.2
20260509184332 54 148 7.0 13.0 0.00 0.00 0.00 45 1020.2
20260509183832 55 207 6.0 13.0 0.00 0.00 0.00 44 1020.2
20260509183332 55 161 6.0 14.0 0.00 0.00 0.00 44 1020.2
20260509182831 55 113 8.0 14.0 0.00 0.00 0.00 42 1020.2
20260509182330 55 176 4.0 11.0 0.00 0.00 0.00 43 1020.2
20260509181831 56 198 6.0 11.0 0.00 0.00 0.00 43 1020.1
20260509181330 56 150 5.0 9.0 0.00 0.00 0.00 42 1020.1
20260509180831 56 180 5.0 12.0 0.00 0.00 0.00 42 1020.0
20260509180352 56 154 4.0 12.0 0.00 0.00 0.00 41 1020.0
20260509175831 57 132 5.0 15.0 0.00 0.00 0.00 40 1020.0
20260509175340 57 155 7.0 15.0 0.00 0.00 0.00 40 1020.1
20260509174829 57 133 6.0 13.0 0.00 0.00 0.00 39 1020.1
20260509174350 57 150 7.0 16.0 0.00 0.00 0.00 39 1020.1
20260509173830 58 147 7.0 16.0 0.00 0.00 0.00 38 1020.1
20260509173329 58 161 5.0 10.0 0.00 0.00 0.00 39 1020.1
20260509172830 58 213 7.0 11.0 0.00 0.00 0.00 38 1020.2
20260509172350 58 129 5.0 12.0 0.00 0.00 0.00 37 1020.2
20260509171830 58 165 7.0 14.0 0.00 0.00 0.00 35 1020.2
20260509171328 58 122 8.0 14.0 0.00 0.00 0.00 34 1020.2
20260509170830 58 153 9.0 12.0 0.00 0.00 0.00 33 1020.2
20260509170337 59 156 4.0 13.0 0.00 0.00 0.00 32 1020.3
20260509165846 59 185 7.0 16.0 0.00 0.00 0.00 31 1020.3
20260509165332 59 127 8.0 16.0 0.00 0.00 0.00 31 1020.3
20260509164831 59 132 7.0 14.0 0.00 0.00 0.00 30 1020.3
20260509164330 59 126 5.0 11.0 0.00 0.00 0.00 32 1020.3
20260509163832 60 125 8.0 13.0 0.00 0.00 0.00 30 1020.4
20260509163331 60 123 6.0 11.0 0.00 0.00 0.00 32 1020.4
20260509162839 60 157 3.0 12.0 0.00 0.00 0.00 32 1020.5
20260509162325 60 146 8.0 14.0 0.00 0.00 0.00 31 1020.4
20260509161831 61 134 8.0 14.0 0.00 0.00 0.00 31 1020.5
20260509161331 61 157 6.0 14.0 0.00 0.00 0.00 32 1020.5
20260509160831 61 178 6.0 10.0 0.00 0.00 0.00 32 1020.6
20260509160350 61 169 5.0 14.0 0.00 0.00 0.00 33 1020.6
20260509155829 61 157 5.0 11.0 0.00 0.00 0.00 34 1020.6
20260509155337 61 136 5.0 11.0 0.00 0.00 0.00 35 1020.6
20260509154825 62 131 5.0 13.0 0.00 0.00 0.00 33 1020.6
20260509154331 62 142 4.0 13.0 0.00 0.00 0.00 32 1020.7
20260509153831 62 160 4.0 7.0 0.00 0.00 0.00 32 1020.7
20260509153332 62 201 2.0 7.0 0.00 0.00 0.00 31 1020.8
20260509152852 62 242 3.0 8.0 0.00 0.00 0.00 30 1021.0
20260509152339 62 216 5.0 11.0 0.00 0.00 0.00 32 1021.0
20260509151825 63 174 4.0 11.0 0.00 0.00 0.00 31 1021.0
20260509151352 63 130 3.0 9.0 0.00 0.00 0.00 34 1021.0
20260509150828 63 241 3.0 9.0 0.00 0.00 0.00 29 1021.1
20260509150336 63 129 3.0 11.0 0.00 0.00 0.00 31 1021.1
20260509145824 63 153 6.0 11.0 0.00 0.00 0.00 30 1021.2
20260509145331 63 106 4.0 8.0 0.00 0.00 0.00 31 1021.2
20260509144907 63 155 3.0 24.0 0.00 0.00 0.00 31 1021.3
20260509144324 63 137 6.0 23.0 0.00 0.00 0.00 34 1021.1
20260509143824 63 165 3.0 11.0 0.00 0.00 0.00 29 1021.4
20260509143325 63 150 3.0 8.0 0.00 0.00 0.00 29 1021.4
20260509142825 63 166 5.0 10.0 0.00 0.00 0.00 29 1021.5
20260509142333 63 140 5.0 10.0 0.00 0.00 0.00 31 1021.5
20260509141841 64 132 3.0 12.0 0.00 0.00 0.00 31 1021.6
20260509141348 64 106 8.0 12.0 0.00 0.00 0.00 30 1021.7
20260509140827 64 192 3.0 7.0 0.00 0.00 0.00 30 1021.7
20260509140336 64 184 2.0 8.0 0.00 0.00 0.00 28 1021.8
20260509135825 64 168 5.0 8.0 0.00 0.00 0.00 30 1021.8
20260509135326 64 175 3.0 6.0 0.00 0.00 0.00 28 1021.9
20260509134827 64 115 2.0 7.0 0.00 0.00 0.00 30 1021.9
20260509134327 64 109 4.0 12.0 0.00 0.00 0.00 29 1022.1
20260509133836 63 169 6.0 12.0 0.00 0.00 0.00 27 1022.2
20260509133329 63 134 5.0 10.0 0.00 0.00 0.00 27 1022.2
20260509132826 63 140 5.0 11.0 0.00 0.00 0.00 31 1022.3
20260509132345 63 175 7.0 12.0 0.00 0.00 0.00 28 1022.3
20260509131826 64 171 5.0 12.0 0.00 0.00 0.00 28 1022.4
20260509131327 64 145 4.0 9.0 0.00 0.00 0.00 30 1022.4
20260509130826 65 172 4.0 9.0 0.00 0.00 0.00 27 1022.6
20260509130336 65 292 1.0 10.0 0.00 0.00 0.00 29 1022.5
20260509125824 64 345 2.0 10.0 0.00 0.00 0.00 27 1022.7
20260509125324 64 188 1.0 10.0 0.00 0.00 0.00 28 1022.8
20260509124825 64 253 4.0 10.0 0.00 0.00 0.00 28 1022.9
20260509124325 64 134 6.0 11.0 0.00 0.00 0.00 27 1022.9
20260509123846 65 153 6.0 11.0 0.00 0.00 0.00 27 1023.0
20260509123325 65 99 2.0 11.0 0.00 0.00 0.00 32 1023.0
20260509122846 66 182 4.0 6.0 0.00 0.00 0.00 29 1023.0
20260509122325 65 229 1.0 5.0 0.00 0.00 0.00 27 1023.1
20260509121833 65 198 1.0 6.0 0.00 0.00 0.00 29 1023.2
20260509121341 65 169 2.0 8.0 0.00 0.00 0.00 28 1023.2
20260509120851 65 217 2.0 8.0 0.00 0.00 0.00 26 1023.3
20260509120350 65 213 2.0 7.0 0.00 0.00 0.00 30 1023.4
20260509115849 65 142 2.0 7.0 0.00 0.00 0.00 31 1023.4
20260509115328 65 140 3.0 6.0 0.00 0.00 0.00 32 1023.4
20260509114828 64 46 2.0 10.0 0.00 0.00 0.00 28 1023.5
20260509114328 64 155 2.0 10.0 0.00 0.00 0.00 26 1023.7
20260509113828 64 184 3.0 7.0 0.00 0.00 0.00 28 1023.7
20260509113330 65 193 3.0 10.0 0.00 0.00 0.00 28 1023.8
20260509112830 64 126 0.0 10.0 0.00 0.00 0.00 26 1023.8
20260509112330 64 285 3.0 9.0 0.00 0.00 0.00 28 1023.9
20260509111839 64 130 5.0 9.0 0.00 0.00 0.00 27 1023.9
20260509111329 64 138 4.0 9.0 0.00 0.00 0.00 31 1023.9
20260509110829 65 117 6.0 9.0 0.00 0.00 0.00 27 1023.9
20260509110330 65 155 4.0 8.0 0.00 0.00 0.00 26 1024.1
20260509105850 65 305 2.0 7.0 0.00 0.00 0.00 31 1024.1
20260509105338 64 318 3.0 7.0 0.00 0.00 0.00 27 1024.2
20260509104846 64 165 1.0 9.0 0.00 0.00 0.00 30 1024.3
20260509104334 63 95 2.0 12.0 0.00 0.00 0.00 33 1024.4
20260509103901 63 140 5.0 12.0 0.00 0.00 0.00 32 1024.4
20260509103328 64 159 2.0 10.0 0.00 0.00 0.00 28 1024.5
20260509102829 64 164 6.0 17.0 0.00 0.00 0.00 32 1024.5
20260509102328 64 121 10.0 17.0 0.00 0.00 0.00 31 1024.5
20260509101830 63 360 1.0 8.0 0.00 0.00 0.00 34 1024.6
20260509101328 63 111 4.0 13.0 0.00 0.00 0.00 35 1024.6
20260509100828 63 28 2.0 13.0 0.00 0.00 0.00 33 1024.7
20260509100350 63 166 5.0 11.0 0.00 0.00 0.00 33 1024.7
20260509095850 63 105 2.0 9.0 0.00 0.00 0.00 36 1024.7
20260509095350 63 106 5.0 8.0 0.00 0.00 0.00 37 1024.7
20260509094829 63 154 4.0 9.0 0.00 0.00 0.00 33 1024.7
20260509094349 62 105 1.0 10.0 0.00 0.00 0.00 33 1024.8
20260509093829 62 167 3.0 10.0 0.00 0.00 0.00 38 1024.9
20260509093325 62 141 2.0 18.0 0.00 0.00 0.00 35 1024.9
20260509092825 61 155 7.0 18.0 0.00 0.00 0.00 33 1024.9
20260509092326 62 330 4.0 10.0 0.00 0.00 0.00 38 1025.0
20260509091826 62 111 3.0 6.0 0.00 0.00 0.00 37 1025.1
20260509091327 63 156 3.0 6.0 0.00 0.00 0.00 38 1025.2
20260509090826 63 83 3.0 6.0 0.00 0.00 0.00 37 1025.2
20260509090327 62 142 3.0 7.0 0.00 0.00 0.00 38 1025.3
20260509085827 61 38 1.0 9.0 0.00 0.00 0.00 38 1025.3
20260509085348 62 114 5.0 9.0 0.00 0.00 0.00 39 1025.3
20260509084828 61 157 3.0 10.0 0.00 0.00 0.00 35 1025.3
20260509084335 61 88 4.0 10.0 0.00 0.00 0.00 35 1025.3
20260509083824 60 107 2.0 7.0 0.00 0.00 0.00 35 1025.3
20260509083333 60 218 4.0 11.0 0.00 0.00 0.00 32 1025.4
20260509082841 60 175 5.0 11.0 0.00 0.00 0.00 34 1025.4
20260509082328 60 92 4.0 8.0 0.00 0.00 0.00 35 1025.4
20260509081828 60 157 5.0 10.0 0.00 0.00 0.00 34 1025.5
20260509081327 60 131 5.0 10.0 0.00 0.00 0.00 35 1025.4
20260509080835 60 113 6.0 10.0 0.00 0.00 0.00 37 1025.4
20260509080343 59 150 5.0 12.0 0.00 0.00 0.00 37 1025.5
20260509075831 59 92 5.0 12.0 0.00 0.00 0.00 36 1025.6
20260509075340 59 128 4.0 9.0 0.00 0.00 0.00 38 1025.6
20260509074849 60 159 2.0 8.0 0.00 0.00 0.00 40 1025.7
20260509074335 59 192 3.0 8.0 0.00 0.00 0.00 40 1025.7
20260509073825 59 147 5.0 8.0 0.00 0.00 0.00 39 1025.7
20260509073326 59 137 4.0 8.0 0.00 0.00 0.00 36 1025.7
20260509072826 58 198 3.0 5.0 0.00 0.00 0.00 41 1025.7
20260509072326 58 244 2.0 7.0 0.00 0.00 0.00 41 1025.7
20260509071826 57 199 1.0 7.0 0.00 0.00 0.00 40 1025.7
20260509071327 56 202 3.0 7.0 0.00 0.00 0.00 41 1025.7
20260509070828 56 194 3.0 7.0 0.00 0.00 0.00 46 1025.8
20260509070329 56 161 3.0 7.0 0.00 0.00 0.00 44 1025.8
20260509065849 55 130 2.0 7.0 0.00 0.00 0.00 48 1025.7
20260509065328 54 98 2.0 6.0 0.00 0.00 0.00 47 1025.7
20260509064830 54 111 3.0 6.0 0.00 0.00 0.00 48 1025.7
20260509064329 53 147 2.0 9.0 0.00 0.00 0.00 51 1025.7
20260509063829 52 141 5.0 9.0 0.00 0.00 0.00 50 1025.8
20260509063330 51 155 3.0 5.0 0.00 0.00 0.00 57 1025.9
20260509062829 50 159 2.0 3.0 0.00 0.00 0.00 59 1025.9
20260509062339 49 293 1.0 3.0 0.00 0.00 0.00 64 1025.9
20260509061828 48 293 1.0 3.0 0.00 0.00 0.00 63 1026.0
20260509061328 48 292 1.0 3.0 0.00 0.00 0.00 65 1026.0
20260509060857 47 293 1.0 2.0 0.00 0.00 0.00 68 1026.0
20260509060324 46 292 0.0 3.0 0.00 0.00 0.00 70 1026.0
20260509055831 45 293 1.0 3.0 0.00 0.00 0.00 72 1026.1
20260509055330 44 292 0.0 0.0 0.00 0.00 0.00 71 1026.1
20260509054851 44 292 0.0 1.0 0.00 0.00 0.00 72 1026.2
20260509054329 43 293 0.0 3.0 0.00 0.00 0.00 72 1026.2
20260509053839 43 292 1.0 3.0 0.00 0.00 0.00 74 1026.3
20260509053325 43 293 1.0 3.0 0.00 0.00 0.00 74 1026.2
20260509052831 42 293 1.0 3.0 0.00 0.00 0.00 75 1026.3
20260509052400 42 293 2.0 3.0 0.00 0.00 0.00 76 1026.3
20260509051825 41 292 2.0 3.0 0.00 0.00 0.00 77 1026.3